Location: Waco, TX
(31.5480°N, 97.1670°W)
Time: 23:46:58
(UTC-06:00)

ISS - Pass Details

Date: 12 November 2018
Orbit: 402 x 408 km, 51.6° (Epoch: 16 November)

Event Time Altitude Azimuth Distance (km) Brightness Sun altitude
Rises 23:11:08 0° 243° (WSW) 2,301 - -70.5°
Reaches altitude 10° 23:13:20 10° 254° (WSW) 1,445 - -70.9°
Maximum altitude 23:16:16 32° 320° (NW) 716 - -71.3°
Drops below altitude 10° 23:19:14 10° 25° (NNE) 1,452 - -71.8°
Sets 23:21:27 0° 36° (NE) 2,313 - -72.1°
